Wind_Speed
26 23 18 13 17 22 24 23 24 23 24 25 29 29 31 32 33 32 29 29 29 24 25 26 27 24 24 25 26 26 24 23 14 22 20 24 28 30 34 38 42 38 34
25 20 20 19 11 14 17 21 20 20 20 22 23 28 28 28 27 29 28 25 24 22 24 25 25 22 22 25 24 25 26 26 23 19 22 24 30 33 36 39 41 40 33
27 26 28 31 29 26 9 12 15 17 17 18 20 18 16 15 18 20 20 21 20 21 18 17 19 19 22 24 26 27 26 26 29 27 24 26 28 27 32 34 35 35 32
34 35 34 35 31 29 28 24 22 22 21 22 22 21 20 17 16 14 13 12 11 11 11 11 15 17 20 23 24 26 29 30 29 28 25 19 23 26 31 29 26 29 29
32 38 35 33 35 34 35 31 30 32 30 28 28 25 20 17 11 7 8 6 4 4 7 8 9 12 20 25 27 25 25 27 31 29 23 22 20 18 29 27 26 25 22
39 38 38 35 39 38 41 34 36 35 34 32 30 26 23 20 13 7 6 8 4 1 4 7 9 13 14 22 25 31 34 34 28 25 26 23 27 28 28 28 27 16 5
38 38 36 38 40 35 39 41 41 35 35 37 36 34 33 26 18 13 10 11 8 8 9 12 11 11 15 18 19 22 21 24 32 34 28 32 31 34 33 32 29 31 25
36 38 39 40 40 39 43 38 40 30 37 34 35 33 36 34 25 19 18 16 15 15 15 18 15 14 14 16 13 12 10 12 17 23 32 24 30 37 42 43 40 30 19
38 38 37 38 37 37 41 36 36 34 39 40 41 38 37 36 31 24 20 20 19 20 19 23 20 17 17 11 7 6 7 9 10 4 5 14 24 30 36 29 23 28 5
33 33 35 36 34 36 33 28 31 34 34 31 38 35 34 35 37 32 27 24 23 18 19 22 27 24 22 13 11 8 12 15 11 11 11 8 5 4 15 24 33 30 12
28 31 32 33 33 33 31 32 29 30 33 30 29 32 33 38 36 34 32 29 21 19 21 22 24 24 23 20 17 18 13 9 13 17 18 20 23 21 22 17 10 16 14
27 29 31 32 33 32 31 30 31 29 28 26 25 25 28 29 30 28 29 26 23 23 21 21 21 19 24 23 22 18 17 17 20 25 25 25 25 28 28 27 24 22 17
25 27 27 28 31 30 32 31 31 29 27 27 26 25 25 29 30 26 24 23 22 19 18 21 24 24 23 28 27 23 21 24 25 26 22 22 22 22 27 32 32 32 30
24 23 23 25 24 27 26 27 29 29 26 26 24 25 23 26 30 31 26 22 19 16 16 18 20 21 24 26 29 29 25 24 24 23 21 21 23 26 30 27 25 25 32
22 23 23 22 22 20 22 26 24 28 26 25 24 21 24 23 24 23 23 20 17 16 14 16 19 20 19 20 21 20 19 19 19 18 19 19 20 23 25 24 26 26 26
20 20 21 20 20 20 19 16 20 22 24 25 23 24 18 21 21 19 20 23 19 17 16 18 18 18 18 18 17 16 17 17 16 14 15 15 15 15 17 19 21 22 20
21 19 19 19 19 19 19 18 17 16 17 22 24 24 23 22 24 22 17 15 22 16 16 16 15 15 14 14 15 14 14 14 13 13 13 13 12 13 14 15 15 15 16
16 17 17 17 18 18 17 17 16 17 18 19 19 22 23 21 23 24 21 14 17 18 17 15 15 14 14 13 13 12 12 12 13 12 12 11 11 11 11 12 12 12 13
17 16 14 14 15 15 15 16 16 17 17 17 19 20 22 20 19 20 20 18 16 16 15 14 14 13 13 12 11 11 11 11 11 10 10 11 10 9 10 10 11 10 10
13 16 14 15 15 15 15 15 15 15 14 15 15 19 21 18 19 19 18 16 15 14 14 13 12 12 12 12 11 10 9 9 9 9 9 8 8 8 8 8 8 8 8
12 12 13 12 12 13 12 12 13 13 14 15 15 15 19 16 16 16 15 15 14 13 12 11 11 11 11 11 11 10 9 8 8 8 7 7 7 6 6 7 7 7 7
11 11 11 11 11 12 12 12 12 12 12 12 12 11 12 12 12 12 12 12 12 11 11 10 9 9 10 10 10 9 8 8 8 8 7 6 5 5 6 6 6 6 6
10 11 11 11 11 11 12 12 11 12 12 12 12 12 12 11 11 11 11 11 10 10 10 9 8 8 8 9 9 8 7 7 7 6 6 5 5 5 5 5 5 5 6
9 10 11 11 11 11 12 12 12 10 11 12 12 12 12 11 11 10 10 10 9 8 8 8 8 7 7 8 8 8 7 6 5 6 6 4 4 5 4 5 5 5 5
10 11 12 12 12 12 13 13 13 12 12 12 12 12 12 12 12 10 9 9 9 8 8 7 6 6 6 7 7 8 10 9 7 6 5 4 4 4 4 3 3 3 3
12 13 13 14 14 14 15 15 14 14 13 13 12 12 12 12 12 11 10 9 8 8 8 8 7 6 6 5 5 6 7 9 10 8 6 4 3 3 3 3 3 2 3
Wind_Direction
321 323 323 319 241 214 207 210 213 213 212 201 202 198 199 201 198 196 195 202 205 208 211 215 222 222 226 229 229 230 231 233 242 254 246 236 229 231 224 225 225 220 224
341 351 4 15 50 199 209 209 220 214 192 196 190 191 195 199 195 194 194 198 198 206 214 217 224 219 233 240 239 234 234 236 234 244 237 225 223 228 224 222 217 216 216
6 15 24 26 32 38 69 180 190 180 180 182 177 177 172 166 180 184 193 201 202 211 217 223 238 241 247 250 249 242 237 245 242 240 240 226 222 222 218 220 217 214 216
19 25 31 30 25 32 44 70 89 104 104 110 116 121 121 128 133 140 157 178 197 213 217 236 252 259 263 265 264 262 257 246 240 233 234 221 209 213 214 212 213 208 206
23 31 27 37 36 38 43 49 65 82 86 94 97 90 81 80 76 123 153 163 190 242 240 257 271 279 270 269 274 275 260 246 248 230 227 226 212 202 202 207 207 184 184
27 32 26 35 43 42 45 43 52 59 67 74 72 68 59 49 44 75 134 127 135 114 336 309 309 312 302 290 280 269 268 261 250 240 234 227 214 212 205 202 194 166 186
29 31 31 34 40 39 50 47 47 47 57 58 56 56 50 44 49 65 98 94 80 53 26 358 338 334 328 317 314 299 285 267 259 259 248 223 222 214 207 200 195 195 202
29 32 31 34 38 40 46 45 47 44 51 51 51 48 48 34 46 56 72 79 71 60 48 24 11 352 342 339 329 314 315 302 293 278 250 257 232 217 210 204 197 187 178
28 29 30 34 36 42 45 40 44 43 47 44 48 42 44 36 38 50 60 66 63 52 46 37 26 14 8 1 6 359 36 36 42 38 220 229 237 222 215 209 167 161 133
25 28 32 36 38 41 40 40 46 49 52 49 50 46 44 39 36 40 56 57 56 46 41 39 33 29 30 37 47 47 50 21 21 46 50 47 85 127 193 194 184 183 152
31 32 36 37 38 40 41 39 40 43 46 44 45 39 40 39 36 38 46 52 46 45 41 36 36 33 41 47 62 53 47 48 46 55 37 48 70 66 57 69 132 188 166
33 36 36 35 37 36 38 37 38 39 41 40 41 40 36 34 34 32 39 45 48 49 38 40 40 37 49 51 58 66 66 65 65 60 38 31 38 56 66 70 78 87 93
35 39 38 37 39 37 37 35 35 34 34 33 31 29 28 27 26 25 26 31 38 48 47 46 51 46 50 56 55 64 64 65 60 57 51 37 36 52 73 74 75 85 97
37 39 40 42 41 41 41 41 40 34 33 30 28 24 21 23 21 19 20 23 25 30 30 34 41 43 41 45 53 55 54 60 68 69 58 56 61 54 58 66 65 63 69
36 37 36 37 39 42 49 48 47 44 40 36 30 29 24 21 17 19 22 22 22 27 31 36 38 36 38 40 41 40 44 48 48 50 58 59 55 58 55 63 65 68 67
36 36 35 35 35 37 37 42 45 47 44 43 41 38 30 26 19 18 22 26 26 32 38 38 36 35 33 31 33 34 36 36 39 46 50 54 56 60 65 60 65 70 73
36 32 32 33 32 30 30 30 25 26 31 32 31 31 30 24 23 23 20 23 31 37 40 34 33 31 29 31 31 28 27 27 31 39 49 54 56 58 61 69 72 77 77
33 33 32 30 28 26 26 25 23 19 15 15 18 20 18 18 20 22 24 28 31 34 37 31 27 25 25 25 25 24 23 24 29 36 41 46 54 64 68 70 73 85 88
31 28 25 26 25 22 20 19 17 14 12 10 7 11 10 12 17 21 26 30 24 25 24 25 23 20 18 20 21 22 27 34 31 34 43 46 46 59 71 75 79 86 97
23 23 21 19 15 13 11 10 9 8 7 6 9 7 2 6 12 15 19 21 20 19 14 14 14 15 13 13 14 15 20 25 33 36 40 46 57 66 74 80 84 88 87
18 17 16 15 14 8 3 2 357 356 355 353 354 355 1 1 5 9 12 12 11 8 6 4 6 8 8 9 11 14 18 21 26 29 33 42 50 63 71 80 86 89 98
20 15 13 13 9 6 359 354 350 345 344 343 342 343 349 352 355 357 0 2 2 2 1 358 359 3 5 8 7 7 11 16 18 20 23 28 39 54 63 71 81 89 98
16 9 6 5 1 353 352 348 344 341 339 338 337 337 339 342 343 345 346 348 350 353 357 1 358 360 4 8 12 14 14 11 10 14 16 22 34 46 54 67 71 78 83
2 357 354 352 351 345 344 339 339 335 333 331 331 331 331 331 328 327 331 335 338 339 344 350 354 0 3 8 8 9 9 15 13 7 26 28 35 37 51 60 68 75 81
340 336 333 331 330 328 325 326 325 323 322 322 323 321 319 318 318 318 317 319 319 323 327 330 331 336 341 2 11 16 17 18 18 38 17 23 37 39 47 55 66 82 85
326 322 317 317 313 313 312 310 309 311 312 312 314 313 313 312 308 307 308 308 306 305 312 320 312 314 310 322 332 354 7 15 21 22 29 8 9 15 31 46 54 87 87
Height
686 674 665 655 651 651 656 660 664 667 673 678 681 685 690 695 699 704 709 715 720 726 730 733 735 739 741 743 744 746 746 748 748 747 749 751 752 755 758 760 764 768 772
683 673 662 653 648 650 654 658 662 664 669 674 677 681 685 691 696 701 705 710 716 721 725 728 731 733 736 737 738 738 739 740 742 739 742 744 744 746 749 751 753 758 762
685 673 664 657 656 654 655 657 659 662 668 673 675 680 685 689 695 698 702 708 713 718 722 724 727 728 729 731 731 730 730 732 732 732 732 734 736 740 741 744 745 748 754
685 677 672 668 668 663 660 658 659 661 667 670 674 679 683 688 693 697 702 706 711 715 718 721 723 725 725 725 725 723 724 722 723 723 722 725 726 730 733 735 738 739 740
698 688 686 684 680 675 670 670 669 668 672 675 678 683 687 689 694 698 702 706 709 713 717 719 719 719 719 718 717 716 716 714 714 711 713 716 717 719 720 724 729 731 734
704 701 699 693 689 688 684 684 679 680 681 683 687 692 696 698 701 698 702 703 708 711 713 713 712 715 712 710 709 708 708 707 704 704 703 703 705 707 711 714 718 723 731
720 715 712 705 699 700 699 695 691 697 695 696 698 700 703 705 704 704 702 700 707 710 712 711 712 710 709 707 704 702 699 695 695 696 691 690 693 695 700 703 706 709 714
734 728 722 718 715 709 705 710 708 714 703 707 710 713 707 712 704 705 702 704 710 713 713 713 711 710 707 703 701 701 695 691 689 688 685 683 682 684 687 687 691 701 709
745 742 739 734 730 727 719 723 719 719 713 713 713 718 717 722 717 713 710 711 715 716 715 715 714 710 705 701 701 702 697 695 693 687 683 678 676 676 679 684 685 693 703
762 759 753 749 747 742 742 742 737 729 730 733 726 733 732 730 727 722 718 718 718 722 722 718 716 713 708 704 701 701 696 699 696 690 687 682 675 674 673 673 677 682 692
776 771 767 763 760 757 756 752 749 744 737 740 742 742 739 737 731 728 727 726 728 727 726 724 719 720 713 710 703 702 702 702 700 693 694 689 681 679 680 678 677 677 683
784 780 777 773 770 767 764 762 759 755 755 755 754 754 752 749 746 745 738 738 736 732 732 731 727 726 718 715 709 706 707 706 702 698 702 700 695 690 689 688 685 683 687
793 789 787 784 779 777 773 772 769 767 764 763 761 761 759 756 753 751 749 746 744 741 741 737 732 731 726 719 716 714 713 711 709 707 710 712 709 704 698 694 694 694 691
800 798 796 793 791 788 786 784 781 778 776 774 772 771 768 763 760 757 755 753 750 748 746 743 738 736 735 731 726 723 723 721 719 717 718 718 716 713 706 706 707 709 707
807 804 802 799 797 796 794 793 791 791 789 785 783 781 778 774 772 770 765 760 757 754 750 747 744 743 742 739 737 736 734 732 730 727 724 724 724 721 720 718 718 718 719
813 811 809 807 805 803 801 799 798 797 795 793 791 788 786 783 778 773 769 764 760 756 755 753 752 751 750 748 746 746 743 742 739 736 734 732 732 731 729 729 728 726 731
820 817 815 814 811 809 807 805 803 801 799 797 794 791 789 786 781 776 772 770 766 763 762 762 760 759 759 756 754 754 752 749 747 744 741 739 738 738 737 736 737 738 740
825 823 821 820 818 816 814 812 809 806 803 801 799 796 792 788 784 780 776 774 772 770 769 769 768 766 764 762 760 760 758 756 754 751 748 746 744 744 744 744 745 745 746
829 828 826 824 823 820 817 814 812 809 807 804 802 799 796 793 789 786 783 780 779 777 776 775 773 772 771 768 766 766 763 760 759 758 755 752 751 751 750 750 751 752 751
834 832 829 826 824 822 821 818 816 814 812 810 808 806 802 798 794 792 790 788 786 784 782 780 779 777 776 774 772 769 767 765 763 763 761 759 757 757 756 756 755 756 756
837 834 833 831 829 828 825 823 821 818 815 813 810 808 806 802 800 797 795 794 792 790 789 786 784 782 780 778 776 774 772 771 769 767 766 765 763 761 761 760 760 760 759
840 838 836 834 832 831 829 826 824 821 819 816 814 812 810 807 805 803 800 798 796 794 791 789 787 785 784 782 780 778 777 775 773 771 770 769 766 765 764 763 763 762 763
842 841 838 836 835 833 830 828 826 823 820 818 815 812 810 808 806 804 801 799 797 795 793 791 790 788 786 785 783 781 779 778 777 775 774 772 770 768 767 766 766 765 766
844 842 840 837 836 834 831 829 826 824 821 818 815 813 810 808 806 804 802 800 799 796 795 793 791 789 788 786 785 783 780 778 778 778 776 774 773 771 770 769 769 770 770
843 842 839 837 835 833 830 828 825 823 820 818 815 813 810 808 806 803 802 800 799 797 795 794 792 791 789 787 785 783 781 779 778 776 778 776 775 774 773 773 773 773 773
843 841 838 835 833 830 828 825 823 820 818 815 813 811 808 806 804 802 801 799 798 796 795 793 792 790 789 788 786 784 783 781 779 777 777 777 777 776 775 775 775 775 775